千帆星座-206(QIANFAN-206)

导读

QIANFAN-206(NORAD编号69805)是中国千帆低轨互联网星座的成员卫星,由上海垣信卫星科技有限公司运营,2026年上半年随千帆星座组网发射批次升空,单星重约300公斤,采用扁平化设计与氪工质霍尔电推力器,运行于低地轨道。 该卫星为全球提供低延迟、高带宽互联网接入服务,重点覆盖偏远地区、海洋及高山等地面网络空白区域,是千帆星座2026年组网扩编的组成部分,当前千帆星座累计在轨卫星已达182颗,预计2026年底可实现面向多国家及航空场景的商业化通信服务落地。

基本信息
目录编号:
69805
目录名称:
QIANFAN-206
国际标识:
2026-153F
轨道中心:
EARTH
卫星名称:
千帆星座-206
卫星全名:
千帆星座-206(QIANFAN-206)
卫星状态:
在轨 (已飞行63 天)
发射日期:
2026-07-04 UTC
国别 :
中国 (CN)
星等 :
--
轨道信息
数据来源 国际轨道数据 AOE轨道数据
星历时间 2026-09-05T04:24:27+0800
10小时前
查看轨道信息
2026-08-30T03:00:00+0800
6天前
查看轨道信息
半长轴 7217.166km 7217.181km
偏心率 0.0008551 0.0009167
轨道倾角 88.998° 88.998°
近地点辐角 39.221° 55.475°
升交点赤经 353.180° 353.864°
平近点角 320.959° 40.466°
近地点 832.857km 832.428km
远地点 845.201km 845.66km
周期 101.697分钟 101.698分钟
每日圈数 14.159657 14.159614
详细信息
卫星平台:
206
覆盖范围:
全球
运营商:
上海垣信卫星科技有限公司
运营商所在国:
中国
使用方式:
暂无
卫星简介
千帆星座,也被称为“G60星链”计划,是中国版“星链”的重要组成部分,旨在打造一个由1.4万多颗低轨宽频多媒体卫星构成的庞大星座。千帆星座计划由上海垣信卫星科技有限公司负责实施,于2023年启动建设。该项目是我国第二个低轨卫星大星座,旨在通过构建庞大的卫星网络,为全球用户提供高质量的通信和宽带互联网服务。
2D轨道图
3D轨道图
轨道高度分析图
轨道倾角分析图
轨道综合分析图
查看轨道综合分析图
交会数据列表
事件ID 空间交会对象 最接近时刻(TCA) 交会距离 交会风险概率(CRP) 交会风险指数(CRI) 操作
CDM_260907-144803-633706-980521
2026-09-07T
14:48:58+0000
0.625 km
远距离
1.173725E-4 高风险 0.76
CDM_260831-004603-617306-980521
2026-08-31T
00:46:26+0000
1.480 km
极远距离
6.970125E-6 低风险 0.52